CDT,Max TemperatureF,Mean TemperatureF,Min TemperatureF,Max Dew PointF,MeanDew PointF,Min DewpointF,Max Humidity, Mean Humidity, Min Humidity, Max Sea Level PressureIn, Mean Sea Level PressureIn, Min Sea Level PressureIn, Max VisibilityMiles, Mean VisibilityMiles, Min VisibilityMiles, Max Wind SpeedMPH, Mean Wind SpeedMPH, Max Gust SpeedMPH,PrecipitationIn, CloudCover, Events, WindDirDegrees
2012-4-1,86,74,62,64,59,54,77,60,45,29.84,29.79,29.70,10,10,10,14,6,23,0.00,1,,201
2012-4-2,87,76,66,63,60,55,73,58,43,29.85,29.79,29.71,10,10,5,16,7,18,0.00,0,,213
2012-4-3,82,71,60,61,56,52,77,62,45,29.97,29.90,29.84,10,10,2,12,2,,0.00,1,,214
2012-4-4,80,70,60,59,56,54,82,61,44,29.90,29.79,29.71,10,10,5,15,6,16,0.00,1,,204
2012-4-5,68,62,57,55,51,46,77,69,52,29.82,29.75,29.69,10,10,10,21,5,26,0.60,3,Thunderstorm,267
2012-4-6,64,55,46,45,37,34,72,53,37,30.15,30.08,29.94,10,10,4,16,9,21,0.00,0,,31
2012-4-7,71,56,42,45,39,34,71,53,31,30.25,30.21,30.17,10,10,10,7,3,,0.00,0,,58
2012-4-8,69,60,51,46,41,37,76,51,33,30.33,30.27,30.20,10,10,10,14,5,22,0.00,2,,360
2012-4-9,75,58,41,45,39,34,82,52,25,30.21,30.15,30.07,10,10,6,13,2,18,0.00,0,,303
2012-4-10,69,61,51,45,37,28,72,45,23,30.17,30.11,30.05,10,10,8,15,4,20,0.00,3,,15
2012-4-11,60,50,39,34,28,25,76,41,25,30.27,30.22,30.14,10,10,10,16,4,20,0.00,0,,15
2012-4-12,64,50,35,36,31,27,70,47,27,30.32,30.22,30.14,10,10,10,10,3,,0.00,0,,95
2012-4-13,75,62,48,48,41,34,62,48,35,30.17,30.13,30.06,10,10,4,14,6,17,0.00,5,,124
2012-4-14,84,74,64,55,52,48,60,48,35,30.09,30.03,29.94,10,10,10,16,9,26,0.00,3,,176
2012-4-15,82,74,66,57,55,52,68,52,39,30.03,29.92,29.82,10,10,10,17,10,30,0.00,2,,174
2012-4-16,66,60,55,52,48,45,77,65,46,30.24,30.11,29.90,10,10,9,15,9,22,0.39,3,Thunderstorm,266
2012-4-17,62,55,48,46,44,39,77,62,48,30.33,30.28,30.23,10,10,10,14,5,18,0.00,0,,48
2012-4-18,73,60,46,45,40,37,76,53,29,30.25,30.16,30.07,10,10,7,12,4,17,0.00,0,,40
2012-4-19,78,62,46,46,43,39,82,50,28,30.08,29.98,29.87,10,10,8,9,2,,0.00,0,,149
2012-4-20,78,64,50,54,48,41,76,61,41,29.96,29.86,29.80,10,10,5,17,7,24,0.20,4,,251
2012-4-21,62,54,46,41,38,36,76,59,42,30.01,29.97,29.93,10,10,10,18,9,24,0.00,5,,13
2012-4-22,64,55,46,41,38,36,71,51,40,30.05,29.95,29.89,10,9,2,18,4,26,0.00,4,,349
2012-4-23,62,52,41,36,29,25,62,43,24,30.12,30.05,29.97,10,10,10,21,9,29,0.00,2,,325
2012-4-24,77,60,44,41,38,34,71,44,22,30.01,29.91,29.77,10,10,10,16,7,24,0.00,0,,237
2012-4-25,84,73,62,59,53,41,57,48,39,29.81,29.76,29.68,10,10,10,16,9,28,0.00,0,,212
2012-4-26,89,79,69,63,55,46,60,47,28,29.96,29.85,29.76,10,10,10,22,13,28,0.00,1,,267
2012-4-27,69,63,57,52,45,39,68,51,40,30.07,29.99,29.92,10,10,3,16,9,22,0.00,4,,76
2012-4-28,87,74,62,61,56,52,73,54,35,30.03,29.94,29.90,10,10,10,14,6,20,0.00,3,,188
2012-4-29,87,79,71,61,58,55,61,46,35,30.09,30.04,30.01,10,10,10,10,6,,0.00,2,,187
2012-4-30,86,74,62,64,60,54,83,65,45,30.08,30.03,29.98,10,9,2,18,5,34,1.59,3,Thunderstorm,197